ギブス彗星

P/2006 W1 ( Gibbs )

English version
Home page
Total 6,336 html files since Dec. 4, 1995
Updated on April 21, 2007

---------------------------------------------------------------------

・ プロフィール

発見日 2006年11月16日
発見光度 18.6等
発見者 A. R. Gibbs (Catalina Sky Survey)

・ 軌道要素

The following orbital elements are taken from MPC 58780:

Epoch 2006 Apr. 15.0 TT = JDT 2453840.5
T 2006 Mar. 29.5695 TT                                  MPC
q   1.700293             (2000.0)            P               Q
n   0.0708434      Peri.  230.5708      +0.8906528      -0.4317620
a   5.784550       Node   154.0495      +0.4475548      +0.8877901
e   0.706063       Incl.   19.0109      -0.0802020      +0.1594058
P  13.9
From 103 observations 2006 Nov. 16-2007 Jan. 25, mean residual 0".7.

・ 星図

・ 光度変化

        m1 = 12.0 + 5 logΔ + 10.0 log r

---------------------------------------------------------------------

軌道要素はMPCのEphemerides and Orbital Elementsに掲載されたものです。
星図は StellaNavigator Ver.2.0 for Windows (アストロアーツ 編著 / アスキー出版局刊) で作成したものです。
光度グラフはComet for Windowsで作成したものです。

---------------------------------------------------------------------

Copyright(C) 1995-2008 Seiichi Yoshida (comet@aerith.net). All rights reserved.